Date String (YYYY-MM-DD hh:mm:ss) UTC,Instrument flags,absolute air pressure of the measurement (hPa),sample flow rate (lpm),inlet stack bypass flow (lpm),air temperature of the measurement (°C),ambient temperature measured by the external sensor (°C),aerosol sample conditioner tube jacket temperature (°C),OPC LED temperature (°C),internal box temperature (°C),relative humidity of the measurement (%),span deviation,mass concentration of particles derived from Lorenz-Mie calculation of OPC scattering (μg/m³),mass concentration of particles derived from Lorenz-Mie calculation of OPC scattering (μg/m³),mass concentration of particles derived from Lorenz-Mie calculation of OPC scattering (μg/m³)
DateTimeUTC,F1_M11,P_M11,Q1_M11,Q2_M11,T1_M11,T2_M11,T3_M11,T4_M11,T5_M11,U1_M11,ZSPAN_M11,X2_M11,X0_M11,X1_M11
2024-03-24 18:00:00,SystemResetWarning,0808.2,5.01,000.00,021.7,021.1,000.0,030.1,023.5,21.9,0001.0,0017.89,0035.32,0015.57
2024-03-24 18:01:00,SystemResetWarning,0808.1,5.01,000.00,021.7,021.1,000.0,030.2,023.5,21.9,0001.1,0017.58,0035.83,0015.30
2024-03-24 18:02:00,SystemResetWarning,0808.1,4.99,000.00,021.7,021.1,000.0,030.2,023.5,22.4,0001.1,0017.30,0035.01,0015.05
2024-03-24 18:03:00,SystemResetWarning,0808.1,4.99,000.00,021.7,021.1,000.0,030.2,023.6,22.3,0001.2,0017.03,0034.14,0014.81
2024-03-24 18:04:00,SystemResetWarning,0808.1,5.01,000.00,021.7,021.1,000.0,030.2,023.5,22.7,0001.3,0016.80,0033.49,0014.61
2024-03-24 18:05:00,SystemResetWarning,0808.0,5.01,000.00,021.7,021.1,000.0,030.2,023.5,22.7,0001.5,0016.64,0032.91,0014.51
2024-03-24 18:06:00,SystemResetWarning,0808.0,5.00,000.00,021.7,021.1,000.0,030.2,023.6,22.4,0001.8,0016.33,0032.56,0014.25
2024-03-24 18:07:00,SystemResetWarning,0808.0,5.00,000.00,021.7,021.1,000.0,030.2,023.6,22.2,0002.0,0015.95,0031.92,0013.95
2024-03-24 18:08:00,SystemResetWarning,0808.0,5.00,000.00,021.7,021.1,000.0,030.2,023.6,22.1,0002.1,0015.70,0031.56,0013.73
2024-03-24 18:09:00,SystemResetWarning,0808.0,4.99,000.00,021.7,021.1,000.0,030.2,023.6,22.2,0002.4,0015.63,0031.03,0013.65
2024-03-24 18:10:00,SystemResetWarning,0808.0,5.00,000.00,021.7,021.1,000.0,030.2,023.6,22.5,0002.3,0015.54,0029.43,0013.61
2024-03-24 18:11:00,SystemResetWarning,0808.0,5.00,000.00,021.7,021.1,000.0,030.2,023.6,21.9,0002.4,0015.52,0030.58,0013.60
2024-03-24 18:12:00,SystemResetWarning,0808.1,5.00,000.00,021.7,021.2,000.0,030.2,023.6,21.3,0002.5,0015.43,0029.89,0013.51
2024-03-24 18:13:00,SystemResetWarning,0808.1,4.99,000.00,021.8,021.2,000.0,030.2,023.6,21.6,0002.5,0015.32,0029.18,0013.43
2024-03-24 18:14:00,SystemResetWarning,0808.0,5.00,000.00,021.8,021.2,000.0,030.2,023.6,21.7,0002.3,0015.24,0029.81,0013.31
2024-03-24 18:15:00,SystemResetWarning,0808.1,5.01,000.00,021.8,021.2,000.0,030.2,023.6,21.9,0002.2,0015.06,0030.25,0013.19
2024-03-24 18:16:00,SystemResetWarning,0808.0,5.00,000.00,021.8,021.2,000.0,030.2,023.6,22.3,0002.1,0014.88,0030.19,0013.09
2024-03-24 18:17:00,SystemResetWarning,0808.0,5.00,000.00,021.8,021.2,000.0,030.2,023.6,22.3,0002.0,0014.87,0029.08,0013.10
2024-03-24 18:18:00,SystemResetWarning,0807.9,5.00,000.00,021.8,021.2,000.0,030.2,023.6,21.5,0001.6,0014.82,0028.61,0013.03
2024-03-24 18:19:00,SystemResetWarning,0807.9,5.00,000.00,021.8,021.2,000.0,030.3,023.7,21.4,0001.6,0014.74,0027.84,0012.93
2024-03-24 18:20:00,SystemResetWarning,0807.9,5.00,000.00,021.8,021.2,000.0,030.3,023.7,21.4,0001.3,0014.59,0027.72,0012.80
2024-03-24 18:21:00,SystemResetWarning,0807.9,4.99,000.00,021.8,021.3,000.0,030.3,023.7,21.3,0001.0,0014.44,0027.68,0012.66
2024-03-24 18:22:00,SystemResetWarning,0807.8,5.00,000.00,021.8,021.3,000.0,030.3,023.7,21.2,0000.8,0014.26,0026.50,0012.55
2024-03-24 18:23:00,SystemResetWarning,0807.8,5.00,000.00,021.8,021.3,000.0,030.3,023.7,21.1,0000.1,0014.18,0026.28,0012.50
2024-03-24 18:24:00,SystemResetWarning,0807.8,5.01,000.00,021.9,021.3,000.0,030.3,023.7,21.2,-000.0,0014.12,0025.89,0012.42
2024-03-24 18:25:00,SystemResetWarning,0807.8,5.01,000.00,021.9,021.3,000.0,030.3,023.7,21.0,0000.1,0013.97,0025.31,0012.31
2024-03-24 18:26:00,SystemResetWarning,0807.8,5.00,000.00,021.9,021.3,000.0,030.3,023.7,20.6,0000.3,0013.83,0024.64,0012.18
2024-03-24 18:27:00,SystemResetWarning,0807.7,5.00,000.00,021.9,021.3,000.0,030.3,023.7,20.0,0000.4,0013.58,0023.53,0011.93
2024-03-24 18:28:00,SystemResetWarning,0807.8,4.99,000.00,021.9,021.3,000.0,030.3,023.8,19.7,0000.6,0013.20,0023.01,0011.61
2024-03-24 18:29:00,SystemResetWarning,0807.8,5.00,000.00,021.9,021.3,000.0,030.3,023.8,19.8,0000.9,0013.00,0022.36,0011.39
2024-03-24 18:30:00,SystemResetWarning,0807.7,5.00,000.00,021.9,021.3,000.0,030.4,023.8,19.8,0000.6,0012.81,0021.94,0011.18
2024-03-24 18:31:00,SystemResetWarning,0807.8,5.00,000.00,021.9,021.4,000.0,030.4,023.8,20.0,0000.7,0012.62,0020.86,0011.02
2024-03-24 18:32:00,SystemResetWarning,0807.7,5.00,000.00,021.9,021.4,000.0,030.4,023.8,20.3,0001.0,0012.43,0020.54,0010.87
2024-03-24 18:33:00,SystemResetWarning,0807.8,5.00,000.00,021.9,021.4,000.0,030.4,023.8,20.5,0001.0,0012.37,0020.64,0010.77
2024-03-24 18:34:00,SystemResetWarning,0807.8,5.00,000.00,022.0,021.4,000.0,030.4,023.8,20.0,0001.4,0012.27,0020.13,0010.67
2024-03-24 18:35:00,SystemResetWarning,0807.7,5.00,000.00,022.0,021.4,000.0,030.4,023.8,19.6,0001.7,0012.12,0019.78,0010.51
2024-03-24 18:36:00,SystemResetWarning,0807.7,5.00,000.00,022.0,021.4,000.0,030.4,023.8,20.0,0001.8,0011.93,0019.71,0010.35
2024-03-24 18:37:00,SystemResetWarning,0807.8,5.00,000.00,022.0,021.4,000.0,030.4,023.9,20.4,0001.7,0011.85,0019.91,0010.27
2024-03-24 18:38:00,SystemResetWarning,0807.7,5.01,000.00,022.0,021.4,000.0,030.4,023.9,20.6,0001.6,0011.86,0020.19,0010.25
2024-03-24 18:39:00,SystemResetWarning,0807.7,5.01,000.00,022.0,021.4,000.0,030.4,023.9,20.2,0001.4,0011.89,0020.96,0010.25
2024-03-24 18:40:00,SystemResetWarning,0807.7,5.00,000.00,022.0,021.4,000.0,030.4,023.9,19.9,0001.2,0011.85,0021.98,0010.23
2024-03-24 18:41:00,SystemResetWarning,0807.7,4.99,000.00,022.0,021.4,000.0,030.4,023.9,20.1,0001.4,0011.78,0022.35,0010.24
2024-03-24 18:42:00,SystemResetWarning,0807.7,4.99,000.00,022.0,021.4,000.0,030.5,023.9,19.9,0001.7,0011.77,0024.55,0010.23
2024-03-24 18:43:00,SystemResetWarning,0807.7,5.00,000.00,022.0,021.4,000.0,030.5,023.9,19.6,0002.0,0011.75,0026.75,0010.18
2024-03-24 18:44:00,SystemResetWarning,0807.6,5.00,000.00,022.0,021.4,000.0,030.5,023.9,19.2,0001.7,0011.64,0027.12,0010.07
2024-03-24 18:45:00,SystemResetWarning,0807.5,5.00,000.00,022.0,021.5,000.0,030.5,023.9,19.4,0001.3,0011.43,0026.96,0009.92
2024-03-24 18:46:00,SystemResetWarning,0807.5,5.00,000.00,022.1,021.5,000.0,030.5,023.9,19.2,0001.4,0011.33,0026.75,0009.87
2024-03-24 18:47:00,SystemResetWarning,0807.5,5.01,000.00,022.1,021.5,000.0,030.5,023.9,19.0,0001.2,0011.27,0026.12,0009.82
2024-03-24 18:48:00,SystemResetWarning,0807.6,5.00,000.00,022.1,021.5,000.0,030.5,023.9,19.0,0001.6,0011.10,0025.33,0009.71
2024-03-24 18:49:00,SystemResetWarning,0807.6,4.99,000.00,022.1,021.5,000.0,030.5,023.9,19.1,0001.9,0010.94,0025.16,0009.57
2024-03-24 18:50:00,SystemResetWarning,0807.7,5.00,000.00,022.1,021.5,000.0,030.5,023.9,19.1,0002.1,0010.80,0024.51,0009.46
2024-03-24 18:51:00,SystemResetWarning,0807.6,5.00,000.00,022.1,021.5,000.0,030.5,024.0,19.3,0002.1,0010.71,0023.51,0009.37
2024-03-24 18:52:00,SystemResetWarning,0807.6,4.99,000.00,022.1,021.5,000.0,030.5,024.0,19.3,0002.0,0010.64,0023.31,0009.29
2024-03-24 18:53:00,SystemResetWarning,0807.6,5.01,000.00,022.1,021.6,000.0,030.6,024.0,19.2,0001.6,0010.56,0020.93,0009.20
2024-03-24 18:54:00,SystemResetWarning,0807.6,5.00,000.00,022.1,021.6,000.0,030.6,024.0,19.4,0001.0,0010.46,0019.02,0009.14
2024-03-24 18:55:00,SystemResetWarning,0807.6,5.00,000.00,022.1,021.6,000.0,030.6,024.0,19.5,0001.4,0010.41,0018.85,0009.13
2024-03-24 18:56:00,SystemResetWarning,0807.6,5.01,000.00,022.2,021.6,000.0,030.6,024.0,19.5,0001.8,0010.49,0019.01,0009.18
2024-03-24 18:57:00,SystemResetWarning,0807.5,5.00,000.00,022.2,021.6,000.0,030.6,024.0,19.6,0001.7,0010.57,0019.06,0009.20
2024-03-24 18:58:00,SystemResetWarning,0807.5,5.00,000.00,022.2,021.6,000.0,030.6,024.0,19.7,0001.8,0010.61,0019.24,0009.23
2024-03-24 18:59:00,SystemResetWarning,0807.5,4.99,000.00,022.2,021.6,000.0,030.6,024.0,19.9,0001.5,0010.67,0018.91,0009.28
